• In Hungary
  • List of Countries
  • For 7 days
  • Water Temperature
  • Satellite Maps
  • Weather Map
  • News
  • Weather Widgets
  • user-avatar
    Login

    Hourly Weather El Quseir

    Today, 22 September, Friday

    Time Temperature Precipitation Wind Pressure Humidity
    00:00 +34°C° 0 mm 7 mps 755 mmHg 29%
    01:00 +33°C° 0 mm 7 mps 755 mmHg 30%
    02:00 +33°C° 0 mm 7 mps 755 mmHg 30%
    03:00 +32°C° 0 mm 8 mps 755 mmHg 31%
    04:00 +32°C° 0 mm 8 mps 755 mmHg 31%
    05:00 +32°C° 0 mm 8 mps 755 mmHg 32%
    06:00 +33°C° 0 mm 8 mps 755 mmHg 30%
    07:00 +35°C° 0 mm 9 mps 756 mmHg 28%
    08:00 +37°C° 0 mm 9 mps 756 mmHg 27%
    09:00 +38°C° 0 mm 9 mps 756 mmHg 25%
    10:00 +39°C° 0 mm 9 mps 756 mmHg 24%
    11:00 +42°C° 0 mm 9 mps 756 mmHg 22%
    12:00 +42°C° 0 mm 9 mps 755 mmHg 21%
    13:00 +43°C° 0 mm 9 mps 755 mmHg 20%
    14:00 +43°C° 0 mm 8 mps 754 mmHg 18%
    15:00 +43°C° 0 mm 8 mps 754 mmHg 19%
    16:00 +41°C° 0 mm 8 mps 754 mmHg 19%
    17:00 +41°C° 0 mm 8 mps 754 mmHg 20%
    18:00 +40°C° 0 mm 7 mps 754 mmHg 22%
    19:00 +39°C° 0 mm 7 mps 754 mmHg 24%
    20:00 +38°C° 0 mm 7 mps 755 mmHg 26%
    21:00 +36°C° 0 mm 7 mps 755 mmHg 29%
    22:00 +35°C° 0 mm 8 mps 755 mmHg 32%
    23:00 +35°C° 0 mm 8 mps 756 mmHg 35%

    Tomorrow, 23 September, Saturday

    Time Temperature Precipitation Wind Pressure Humidity
    00:00 +34°C° 0 mm 8 mps 756 mmHg 36%
    01:00 +34°C° 0 mm 9 mps 755 mmHg 36%
    02:00 +33°C° 0 mm 9 mps 755 mmHg 37%
    03:00 +33°C° 0 mm 9 mps 755 mmHg 37%
    04:00 +32°C° 0 mm 9 mps 755 mmHg 36%
    05:00 +32°C° 0 mm 9 mps 755 mmHg 36%
    06:00 +33°C° 0 mm 9 mps 756 mmHg 32%
    07:00 +34°C° 0 mm 9 mps 756 mmHg 27%
    08:00 +37°C° 0 mm 9 mps 756 mmHg 23%
    09:00 +38°C° 0 mm 9 mps 756 mmHg 22%
    10:00 +39°C° 0 mm 10 mps 756 mmHg 21%
    11:00 +42°C° 0 mm 10 mps 756 mmHg 20%
    12:00 +42°C° 0 mm 9 mps 756 mmHg 20%
    13:00 +42°C° 0 mm 9 mps 755 mmHg 21%
    14:00 +42°C° 0 mm 9 mps 755 mmHg 21%
    15:00 +42°C° 0 mm 9 mps 755 mmHg 23%
    16:00 +40°C° 0 mm 9 mps 755 mmHg 25%
    17:00 +39°C° 0 mm 9 mps 754 mmHg 27%
    18:00 +38°C° 0 mm 8 mps 755 mmHg 30%
    19:00 +37°C° 0 mm 8 mps 755 mmHg 32%
    20:00 +35°C° 0 mm 7 mps 756 mmHg 34%
    21:00 +34°C° 0 mm 8 mps 756 mmHg 35%
    22:00 +34°C° 0 mm 8 mps 756 mmHg 36%
    23:00 +33°C° 0 mm 8 mps 756 mmHg 37%

    Day after tomorrow, 24 September, Sunday

    Time Temperature Precipitation Wind Pressure Humidity
    00:00 +32°C° 0 mm 9 mps 756 mmHg 39%
    01:00 +32°C° 0 mm 9 mps 756 mmHg 41%
    02:00 +31°C° 0 mm 9 mps 756 mmHg 43%
    03:00 +31°C° 0 mm 9 mps 756 mmHg 43%
    04:00 +29°C° 0 mm 9 mps 756 mmHg 43%
    05:00 +29°C° 0 mm 9 mps 756 mmHg 43%
    06:00 +31°C° 0 mm 9 mps 756 mmHg 39%
    07:00 +32°C° 0 mm 9 mps 757 mmHg 35%
    08:00 +32°C° 0 mm 8 mps 757 mmHg 31%
    09:00 +34°C° 0 mm 8 mps 757 mmHg 30%
    10:00 +35°C° 0 mm 8 mps 757 mmHg 28%
    11:00 +38°C° 0 mm 7 mps 757 mmHg 26%
    12:00 +38°C° 0 mm 7 mps 756 mmHg 26%
    13:00 +39°C° 0 mm 7 mps 756 mmHg 26%
    14:00 +39°C° 0 mm 7 mps 755 mmHg 27%
    15:00 +38°C° 0 mm 7 mps 755 mmHg 30%
    16:00 +36°C° 0 mm 6 mps 755 mmHg 33%
    17:00 +36°C° 0 mm 6 mps 755 mmHg 35%
    18:00 +35°C° 0 mm 6 mps 756 mmHg 39%
    19:00 +34°C° 0 mm 6 mps 756 mmHg 43%
    20:00 +33°C° 0 mm 6 mps 757 mmHg 47%
    21:00 +32°C° 0 mm 6 mps 757 mmHg 46%
    22:00 +32°C° 0 mm 6 mps 757 mmHg 46%
    23:00 +30°C° 0 mm 6 mps 757 mmHg 45%

    25 September, Monday

    Time Temperature Precipitation Wind Pressure Humidity
    00:00 +30°C° 0 mm 6 mps 756 mmHg 44%
    01:00 +30°C° 0 mm 6 mps 756 mmHg 43%
    02:00 +30°C° 0 mm 6 mps 756 mmHg 41%
    03:00 +29°C° 0 mm 6 mps 756 mmHg 42%
    04:00 +29°C° 0 mm 7 mps 756 mmHg 43%
    05:00 +28°C° 0 mm 7 mps 756 mmHg 44%
    06:00 +30°C° 0 mm 7 mps 756 mmHg 42%
    07:00 +32°C° 0 mm 7 mps 757 mmHg 39%
    08:00 +33°C° 0 mm 7 mps 757 mmHg 36%
    09:00 +34°C° 0 mm 7 mps 757 mmHg 32%
    10:00 +36°C° 0 mm 7 mps 757 mmHg 29%
    11:00 +38°C° 0 mm 7 mps 757 mmHg 26%
    12:00 +39°C° 0 mm 7 mps 756 mmHg 26%
    13:00 +39°C° 0 mm 7 mps 756 mmHg 25%
    14:00 +40°C° 0 mm 7 mps 755 mmHg 25%
    15:00 +39°C° 0 mm 6 mps 755 mmHg 27%
    16:00 +38°C° 0 mm 6 mps 755 mmHg 29%
    17:00 +36°C° 0 mm 5 mps 755 mmHg 31%
    18:00 +35°C° 0 mm 5 mps 756 mmHg 35%
    19:00 +34°C° 0 mm 5 mps 756 mmHg 38%
    20:00 +33°C° 0 mm 5 mps 757 mmHg 41%
    21:00 +33°C° 0 mm 5 mps 757 mmHg 40%
    22:00 +32°C° 0 mm 5 mps 757 mmHg 38%
    23:00 +32°C° 0 mm 6 mps 757 mmHg 37%

    26 September, Tuesday

    Time Temperature Precipitation Wind Pressure Humidity
    00:00 +32°C° 0 mm 6 mps 756 mmHg 37%
    01:00 +30°C° 0 mm 6 mps 756 mmHg 36%
    02:00 +30°C° 0 mm 6 mps 756 mmHg 36%
    03:00 +30°C° 0 mm 7 mps 756 mmHg 39%
    04:00 +29°C° 0 mm 7 mps 756 mmHg 41%
    05:00 +29°C° 0 mm 7 mps 756 mmHg 44%
    06:00 +30°C° 0 mm 7 mps 756 mmHg 40%
    07:00 +32°C° 0 mm 7 mps 757 mmHg 37%
    08:00 +34°C° 0 mm 7 mps 757 mmHg 34%
    09:00 +35°C° 0 mm 7 mps 757 mmHg 30%
    10:00 +37°C° 0 mm 8 mps 757 mmHg 26%
    11:00 +39°C° 0 mm 8 mps 757 mmHg 22%
    12:00 +39°C° 0 mm 8 mps 756 mmHg 22%
    13:00 +40°C° 0 mm 8 mps 756 mmHg 21%
    14:00 +40°C° 0 mm 8 mps 755 mmHg 20%
    15:00 +40°C° 0 mm 7 mps 756 mmHg 22%
    16:00 +39°C° 0 mm 7 mps 756 mmHg 24%
    17:00 +38°C° 0 mm 7 mps 756 mmHg 26%
    18:00 +35°C° 0 mm 7 mps 756 mmHg 29%
    19:00 +34°C° 0 mm 6 mps 757 mmHg 32%
    20:00 +33°C° 0 mm 6 mps 757 mmHg 35%
    21:00 +33°C° 0 mm 6 mps 757 mmHg 34%
    22:00 +32°C° 0 mm 6 mps 757 mmHg 33%
    23:00 +32°C° 0 mm 6 mps 757 mmHg 32%

    27 September, Wednesday

    Time Temperature Precipitation Wind Pressure Humidity
    00:00 +32°C° 0 mm 7 mps 757 mmHg 33%
    01:00 +30°C° 0 mm 7 mps 757 mmHg 34%
    02:00 +30°C° 0 mm 7 mps 756 mmHg 35%
    03:00 +31°C° 0 mm 8 mps 757 mmHg 37%
    04:00 +29°C° 0 mm 8 mps 757 mmHg 38%
    05:00 +29°C° 0 mm 9 mps 757 mmHg 40%
    06:00 +31°C° 0 mm 9 mps 757 mmHg 35%
    07:00 +33°C° 0 mm 9 mps 758 mmHg 30%
    08:00 +34°C° 0 mm 9 mps 758 mmHg 25%
    09:00 +35°C° 0 mm 9 mps 758 mmHg 23%
    10:00 +38°C° 0 mm 8 mps 758 mmHg 21%
    11:00 +39°C° 0 mm 8 mps 758 mmHg 19%
    12:00 +39°C° 0 mm 8 mps 757 mmHg 19%
    13:00 +39°C° 0 mm 7 mps 757 mmHg 20%
    14:00 +40°C° 0 mm 7 mps 756 mmHg 20%
    15:00 +39°C° 0 mm 7 mps 756 mmHg 22%
    16:00 +38°C° 0 mm 7 mps 757 mmHg 24%
    17:00 +36°C° 0 mm 7 mps 757 mmHg 25%
    18:00 +35°C° 0 mm 6 mps 757 mmHg 28%
    19:00 +34°C° 0 mm 6 mps 757 mmHg 31%
    20:00 +33°C° 0 mm 6 mps 758 mmHg 34%
    21:00 +33°C° 0 mm 6 mps 757 mmHg 34%
    22:00 +33°C° 0 mm 6 mps 757 mmHg 33%
    23:00 +32°C° 0 mm 6 mps 757 mmHg 32%
    Show more